Location: Makanda
(37.6176°N, 89.2090°W)
Time: 20:55:53
(UTC+00:00)

Cosmos 1943 Rocket - Pass Details

Date: 23 September 2019
Orbit: 811 x 845 km, 71.0° (Epoch: 17 October)

Event Time Altitude Azimuth Distance (km) Brightness Sun altitude
Exits shadow 08:40:16 18° 356° (N) 1,919 4.3 -35.6°
Drops below altitude 10° 08:41:49 10° 6° (N) 2,425 5.0 -35.3°
Sets 08:44:28 0° 15° (NNE) 3,367 5.9 -34.9°
